Terug naar catalogus

STARLINK-31971

ActiefCommunicatieVLEO
NORAD 59934·PAYLOAD·🇺🇸 United States

Gelanceerd Jun 1, 2024 vanaf Cape Canaveral Space Force Station

Loading…

Volgende Passages (komende 24 uur)

TLE

VersSource: CelesTrak SupGP

Epoch: Sep 14, 2026, 21:44 UTC

1 59934C 24106N   26257.90604167 -.00016431  00000+0 -59511-3 0  2575
2 59934  43.0037 340.7319 0001724 276.4075 175.6307 15.27587869    19

Volg STARLINK-31971 in realtime met AllMySat

Download on the App Store